Red Bluff, CA

12:27 PM PST on November 22, 2019 (GMT -0800)
Red Bluff Municipal

Weather History for KRBL - September, 2019

Change the Weather History Date:

Saturday, September 28, 2019

  Actual Average Record
Temperature  
Mean Temperature 64 °F -  
Max Temperature 73 °F 89 °F 104 °F (2010)
Min Temperature 54 °F 56 °F 47 °F (1964)
Degree Days  
Heating Degree Days 2    
Growing Degree Days 14 (Base 50)    
Moisture  
Dew Point 40 °F    
Average Humidity 48    
Maximum Humidity 86    
Minimum Humidity 17    
Precipitation  
Precipitation 0.00 in - - ()
Sea Level Pressure  
Sea Level Pressure 29.72 in    
Wind  
Wind Speed 7 mph (NW)    
Max Wind Speed 21 mph    
Max Gust Speed 33 mph    
Visibility 10 miles    
Events      
Averages and records for this station are not official NWS values.
T = Trace of Precipitation, MM = Missing Value Source: NWS Daily Summary

Daily Weather History Graph

Daily Weather History Graph

Search for Another Location

Airport or City:

Astronomy

Sep. 28, 2019 Rise Set
Actual Time 7:02 AM PDT 6:56 PM PDT
Civil Twilight 6:35 AM PDT 7:23 PM PDT
Nautical Twilight 6:03 AM PDT 7:54 PM PDT
Astronomical Twilight 5:31 AM PDT 8:26 PM PDT
Moon 6:45 AM PDT (9/28) 7:25 PM PDT (9/28)
Length of Visible Light 12h 48m
Length of Day
11h 54m
New Moon, 0% of the Moon is Illuminated
Sep 28
New Moon
Oct 5
First Quarter
Oct 13
Full
Oct 21
Last Quarter
Oct 27
New

Hourly Weather History & Observations

Time (PDT) Temp. Dew Point Humidity Pressure Visibility Wind Dir Wind Speed Gust Speed Precip Events Conditions
12:54 AM 64.0 °F 55.0 °F 73% 29.70 in 10.0 mi Calm Calm - N/A   Overcast
1:54 AM 63.0 °F 55.0 °F 75% 29.70 in 10.0 mi South 5.8 mph - N/A   Overcast
2:54 AM 62.1 °F 55.0 °F 78% 29.70 in 10.0 mi South 5.8 mph - N/A   Mostly Cloudy
3:54 AM 57.9 °F 51.1 °F 78% 29.70 in 10.0 mi Calm Calm - N/A   Clear
4:54 AM 57.0 °F 50.0 °F 77% 29.71 in 10.0 mi South 6.9 mph - N/A   Clear
5:54 AM 54.0 °F 48.9 °F 83% 29.73 in 10.0 mi Calm Calm - N/A   Clear
6:54 AM 55.0 °F 50.0 °F 83% 29.73 in 10.0 mi SE 4.6 mph - N/A   Mostly Cloudy
7:54 AM 55.0 °F 51.1 °F 86% 29.75 in 10.0 mi South 4.6 mph - N/A   Overcast
8:54 AM 57.9 °F 50.0 °F 75% 29.75 in 10.0 mi Calm Calm - N/A   Clear
9:54 AM 66.0 °F 37.0 °F 34% 29.74 in 10.0 mi NW 11.5 mph - N/A   Partly Cloudy
10:54 AM 70.0 °F 35.1 °F 28% 29.73 in 10.0 mi NW 13.8 mph 25.3 mph N/A   Clear
11:54 AM 71.1 °F 32.0 °F 24% 29.72 in 10.0 mi NNW 15.0 mph 21.9 mph N/A   Clear
12:54 PM 71.1 °F 30.9 °F 23% 29.70 in 10.0 mi NNW 13.8 mph 20.7 mph N/A   Partly Cloudy
1:54 PM 73.9 °F 30.0 °F 20% 29.68 in 10.0 mi WNW 16.1 mph 23.0 mph N/A   Partly Cloudy
2:54 PM 73.0 °F 28.9 °F 20% 29.66 in 10.0 mi West 17.3 mph 26.5 mph N/A   Clear
3:54 PM 73.0 °F 28.9 °F 20% 29.65 in 10.0 mi WNW 17.3 mph 27.6 mph N/A   Clear
4:54 PM 70.0 °F 30.9 °F 24% 29.68 in 10.0 mi WNW 20.7 mph 33.4 mph N/A   Clear
5:30 PM 69.1 °F 32.0 °F 25% 29.71 in 10.0 mi North 18.4 mph 27.6 mph N/A   Overcast
5:54 PM 64.0 °F 33.1 °F 31% 29.72 in 10.0 mi NW 11.5 mph - N/A   Scattered Clouds
6:54 PM 61.0 °F 32.0 °F 34% 29.74 in 10.0 mi NW 13.8 mph - N/A   Partly Cloudy
7:54 PM 60.1 °F 34.0 °F 38% 29.75 in 10.0 mi NW 11.5 mph 23.0 mph N/A   Clear
8:54 PM 59.0 °F 36.0 °F 42% 29.76 in 10.0 mi NW 12.7 mph - N/A   Clear
9:54 PM 57.0 °F 35.1 °F 44% 29.78 in 10.0 mi NNW 6.9 mph - N/A   Clear
10:54 PM 55.0 °F 35.1 °F 47% 29.81 in 10.0 mi North 5.8 mph - N/A   Clear
11:54 PM 54.0 °F 35.1 °F 49% 29.82 in 10.0 mi Calm Calm - N/A   Clear